Location: Boki Hamet
(15.2591°N, 12.7975°W)
Time: 18:44:34
(UTC+00:00)

Daily predictions for brighter satellites

Satellite Brightness Start Highest point End
(mag) Time Altitude Azimuth Time Altitude Azimuth Time Altitude Azimuth
Milstar 3 4.2 19:24:48 10° W 19:31:18 39° SSW 19:41:01 10° SE
Atlas 2A Centaur Rocket 4.2 19:33:12 10° WSW 19:38:03 75° NNW 20:06:13 10° ENE
SL-24 R/B 3.6 19:35:35 10° NNE 19:39:13 78° E 19:43:01 10° S
Cosmos 1346 Rocket 2.8 19:38:48 10° S 19:42:40 58° E 19:46:33 10° NNE
H-2A ROCKET BODY 1.7 19:41:01 10° WNW 19:43:45 85° NNE 19:52:38 10° ESE
Cosmos 2251 Rocket 3.8 19:42:21 10° S 19:47:17 44° E 19:52:14 10° NNE
Cosmos 1633 3.4 19:47:41 10° SSE 19:50:43 27° E 19:53:45 10° NNE
COSMOS 2406 3.9 19:50:20 10° SSE 19:55:21 31° ESE 20:00:20 10° NE
Delta 202 4.0 19:48:18 10° W 19:55:35 77° N 20:01:03 10° ENE
GPS 2-17 Rocket1 3.7 19:51:20 10° W 19:55:41 50° N 19:59:57 10° ENE
Fermi 4.3 19:56:48 10° WNW 20:00:48 49° NNE 20:04:02 15° E
Cosmos 2218 Rocket 4.2 19:56:30 10° SSE 20:02:26 48° E 20:08:19 10° NNE
CZ-4 R/B 2.5 20:01:10 10° S 20:04:50 43° W 20:08:32 10° NNW
IUS-9 SRM-1 2.1 20:00:00 10° WNW 20:04:56 52° SSW 20:06:10 20° SE
FALCON 9 DEB 3.0 20:06:31 10° SSW 20:09:59 81° SE 20:13:27 10° NE
ISS -1.7 20:08:07 10° N 20:10:10 15° NE 20:11:02 14° ENE
Nadezhda 3 Rocket 4.0 20:04:27 10° N 20:10:38 89° E 20:16:46 10° S
Cosmos 1110 Rocket 4.0 20:05:33 10° N 20:10:50 74° ENE 20:16:06 10° SSE
CSL-04 Rocket 3.6 20:10:15 10° SSE 20:15:37 86° W 20:20:54 10° NNW
Cosmos 1328 Rocket 4.1 20:11:36 10° NNE 20:15:41 36° E 20:18:16 19° SE
CZ-2C R/B 2.9 20:17:50 10° SSE 20:22:57 89° WSW 20:27:50 10° NNW
Cosmos 864 Rocket 4.4 20:18:21 10° S 20:24:37 73° E 20:30:55 10° N
Cosmos 1302 Rocket 4.4 20:21:52 10° N 20:26:45 40° ENE 20:28:53 28° ESE
ARGOS 3.1 20:29:42 15° SSE 20:34:11 70° ENE 20:39:33 10° N
Cosmos 2369 Rocket 4.4 20:32:26 10° NW 20:36:52 24° WSW 20:41:20 10° SSW
Cosmos 1933 3.3 20:37:48 10° N 20:41:53 83° W 20:44:03 27° S
BREEZE-M DEB (TANK) 3.7 20:38:59 10° NW 20:42:44 85° SW 20:46:51 27° SE
Ariane Rocket 2.9 20:44:58 36° SSE 20:46:57 67° ENE 20:51:58 10° N
Cosmos 1782 4.1 20:43:33 10° NNE 20:45:54 28° NE 20:45:54 28° NE
Cosmos 1515 Rocket 3.6 20:44:28 10° N 20:48:49 54° E 20:48:50 54° E
CZ-2C R/B 3.2 20:47:09 10° N 20:52:12 55° WNW 20:57:21 10° SSW
Cosmos 407 Rocket 3.5 20:51:01 36° SSE 20:52:55 56° ESE 20:58:07 10° NNE
ATLAS 5 CENTAUR R/B 3.4 20:53:59 10° SSW 21:18:28 - ENE 20:54:37 14° S
Cosmos 1151 Rocket 4.0 20:55:30 10° NNW 20:59:33 45° W 21:02:02 21° SSW
H-2A R/B 3.3 20:55:15 10° S 21:00:13 40° W 21:05:05 10° NNW
Cosmos 1821 Rocket 3.9 21:01:37 52° SE 21:02:32 58° E 21:08:30 10° NNE
Cosmos 1833 Rocket 2.8 21:00:44 10° SSW 21:06:18 73° WNW 21:11:54 10° NNE
MetOp-A 4.0 21:08:33 70° E 21:08:43 71° ENE 21:14:02 10° N
Cosmos 405 4.3 21:05:31 10° NNW 21:08:24 38° WNW 21:08:24 38° WNW
CZ-2C R/B 4.3 21:04:58 10° N 21:09:23 54° WNW 21:12:31 18° SSW
Cosmos 292 Rocket 4.2 21:08:57 10° NNW 21:13:35 58° WSW 21:14:08 54° SW
ATLAS 2A CENTAUR R/B 4.2 20:28:15 10° SW 21:21:47 65° SSE 21:25:55 46° ESE
SPOT 3 Rocket 4.3 21:25:38 42° NNE 21:25:38 42° NNE 21:29:09 10° N
Cosmos 2239 Rocket 4.4 21:32:47 78° NNW 21:32:47 78° NNW 21:38:30 10° N
CZ-3A R/B 3.8 21:18:19 10° WNW 21:45:22 58° N 21:47:53 45° NE
Cosmos 2082 Rocket 3.5 21:58:28 37° NW 21:58:28 37° NW 22:02:41 10° N
